TimeEDT,TemperatureF,Dew PointF,Humidity,Sea Level PressureIn,VisibilityMPH,Wind Direction,Wind SpeedMPH,Gust SpeedMPH,PrecipitationIn,Events,Conditions,WindDirDegrees,DateUTC
12:53 AM,59.0,57.0,93,30.20,10.0,Calm,Calm,-,N/A,,Overcast,0,2012-10-04 04:53:00
1:53 AM,59.0,57.0,93,30.20,6.0,Calm,Calm,-,N/A,,Overcast,0,2012-10-04 05:53:00
2:53 AM,59.0,57.0,93,30.19,9.0,Calm,Calm,-,N/A,,Overcast,0,2012-10-04 06:53:00
3:53 AM,59.0,57.0,93,30.18,8.0,Calm,Calm,-,N/A,,Overcast,0,2012-10-04 07:53:00
4:05 AM,59.0,57.2,94,30.18,8.0,Calm,Calm,-,N/A,,Overcast,0,2012-10-04 08:05:00
4:15 AM,59.0,57.2,94,30.18,8.0,Calm,Calm,-,N/A,,Overcast,0,2012-10-04 08:15:00
4:53 AM,59.0,57.0,93,30.18,3.0,Calm,Calm,-,N/A,,Overcast,0,2012-10-04 08:53:00
5:17 AM,59.0,57.2,94,30.19,2.5,Calm,Calm,-,N/A,,Overcast,0,2012-10-04 09:17:00
5:27 AM,59.0,57.2,94,30.19,3.0,Calm,Calm,-,N/A,,Overcast,0,2012-10-04 09:27:00
5:35 AM,59.0,57.2,94,30.19,4.0,Calm,Calm,-,N/A,,Overcast,0,2012-10-04 09:35:00
5:53 AM,59.0,57.0,93,30.19,5.0,Calm,Calm,-,N/A,,Overcast,0,2012-10-04 09:53:00
6:23 AM,59.0,57.2,94,30.20,2.5,Calm,Calm,-,0.01,,Overcast,0,2012-10-04 10:23:00
6:48 AM,59.0,57.2,94,30.19,4.0,Calm,Calm,-,0.01,,Overcast,0,2012-10-04 10:48:00
6:53 AM,59.0,57.0,93,30.19,4.0,Calm,Calm,-,0.01,,Overcast,0,2012-10-04 10:53:00
7:02 AM,59.0,57.2,94,30.19,5.0,Calm,Calm,-,N/A,,Overcast,0,2012-10-04 11:02:00
7:53 AM,60.1,57.0,90,30.19,8.0,Calm,Calm,-,N/A,,Overcast,0,2012-10-04 11:53:00
8:53 AM,60.1,57.9,93,30.20,4.0,Calm,Calm,-,N/A,,Overcast,0,2012-10-04 12:53:00
9:04 AM,60.8,57.2,88,30.20,2.5,Calm,Calm,-,N/A,,Overcast,0,2012-10-04 13:04:00
9:17 AM,60.8,57.2,88,30.20,4.0,Calm,Calm,-,N/A,,Overcast,0,2012-10-04 13:17:00
9:32 AM,60.8,57.2,88,30.19,9.0,Calm,Calm,-,N/A,,Overcast,0,2012-10-04 13:32:00
9:53 AM,61.0,57.9,90,30.19,10.0,ENE,4.6,-,N/A,,Overcast,70,2012-10-04 13:53:00
10:00 AM,60.8,57.2,88,30.19,10.0,East,3.5,-,N/A,,Overcast,100,2012-10-04 14:00:00
10:19 AM,60.8,55.4,82,30.18,10.0,Variable,6.9,-,N/A,,Overcast,0,2012-10-04 14:19:00
10:30 AM,60.8,55.4,82,30.19,10.0,Variable,3.5,-,N/A,,Overcast,0,2012-10-04 14:30:00
10:53 AM,60.1,55.9,86,30.19,10.0,Calm,Calm,-,N/A,,Overcast,0,2012-10-04 14:53:00
11:53 AM,60.1,55.9,86,30.18,10.0,Calm,Calm,-,N/A,,Overcast,0,2012-10-04 15:53:00
12:53 PM,60.1,55.9,86,30.16,10.0,Calm,Calm,-,N/A,,Overcast,0,2012-10-04 16:53:00
1:23 PM,60.8,55.4,82,30.15,10.0,NE,3.5,-,N/A,,Overcast,40,2012-10-04 17:23:00
1:53 PM,60.1,55.0,83,30.14,10.0,Variable,3.5,-,N/A,,Overcast,0,2012-10-04 17:53:00
2:49 PM,59.0,55.4,88,30.12,10.0,Calm,Calm,-,0.00,,Overcast,0,2012-10-04 18:49:00
2:53 PM,60.1,55.0,83,30.12,10.0,Calm,Calm,-,0.00,,Overcast,0,2012-10-04 18:53:00
3:13 PM,59.0,55.4,88,30.12,6.0,Calm,Calm,-,0.02,Rain,Light Rain,0,2012-10-04 19:13:00
3:25 PM,59.0,57.2,94,30.12,2.5,Calm,Calm,-,0.05,Rain,Rain,0,2012-10-04 19:25:00
3:28 PM,59.0,57.2,94,30.12,1.2,Calm,Calm,-,0.09,Rain,Heavy Rain,0,2012-10-04 19:28:00
3:37 PM,59.0,57.2,94,30.12,1.0,Calm,Calm,-,0.13,Rain,Light Rain,0,2012-10-04 19:37:00
3:40 PM,59.0,57.2,94,30.12,2.0,Calm,Calm,-,0.14,Rain,Rain,0,2012-10-04 19:40:00
3:53 PM,59.0,55.9,90,30.12,3.0,Calm,Calm,-,0.17,Rain,Rain,0,2012-10-04 19:53:00
4:04 PM,59.0,57.2,94,30.11,2.5,Calm,Calm,-,0.03,Rain,Rain,0,2012-10-04 20:04:00
4:23 PM,57.2,57.2,100,30.11,1.5,Calm,Calm,-,0.13,Rain,Heavy Rain,0,2012-10-04 20:23:00
4:34 PM,59.0,57.2,94,30.10,3.0,Calm,Calm,-,0.15,Rain,Light Rain,0,2012-10-04 20:34:00
4:53 PM,59.0,57.0,93,30.11,7.0,Calm,Calm,-,0.17,Rain,Light Rain,0,2012-10-04 20:53:00
5:30 PM,59.0,57.2,94,30.09,10.0,ENE,3.5,-,0.00,Rain,Light Rain,70,2012-10-04 21:30:00
5:37 PM,59.0,55.4,88,30.08,10.0,ENE,4.6,-,0.00,,Overcast,70,2012-10-04 21:37:00
5:50 PM,57.2,55.4,94,30.07,10.0,East,4.6,-,0.01,Rain,Light Rain,80,2012-10-04 21:50:00
5:53 PM,57.9,55.9,93,30.06,10.0,ENE,9.2,-,0.01,Rain,Light Rain,70,2012-10-04 21:53:00
6:53 PM,57.9,55.9,93,30.09,10.0,Calm,Calm,-,0.01,,Overcast,0,2012-10-04 22:53:00
7:53 PM,57.9,55.9,93,30.08,10.0,SE,3.5,-,N/A,,Overcast,130,2012-10-04 23:53:00
8:53 PM,57.9,55.0,90,30.07,10.0,Calm,Calm,-,N/A,,Overcast,0,2012-10-05 00:53:00
9:25 PM,57.2,55.4,94,30.05,10.0,Calm,Calm,-,N/A,,Overcast,0,2012-10-05 01:25:00
9:53 PM,57.9,55.9,93,30.07,10.0,Calm,Calm,-,N/A,,Overcast,0,2012-10-05 01:53:00
10:39 PM,57.2,55.4,94,30.06,1.8,Calm,Calm,-,N/A,,Overcast,0,2012-10-05 02:39:00
10:51 PM,57.2,55.4,94,30.06,1.2,Calm,Calm,-,N/A,,Overcast,0,2012-10-05 02:51:00
10:53 PM,57.0,55.9,96,30.06,1.2,Calm,Calm,-,N/A,,Overcast,0,2012-10-05 02:53:00
11:04 PM,57.2,55.4,94,30.05,1.5,Calm,Calm,-,N/A,,Overcast,0,2012-10-05 03:04:00
11:40 PM,57.2,55.4,94,30.04,1.2,Calm,Calm,-,N/A,,Overcast,0,2012-10-05 03:40:00
11:53 PM,57.0,55.9,96,30.04,1.5,Calm,Calm,-,N/A,,Overcast,0,2012-10-05 03:53:00